Location: RyutenAO
(34.8939°N, 134.0022°E)
Time: 10:50:54
(UTC+09:00)

Tiangong - Visible Passes

Search period start: 27 November 2022 00:00
Search period end: 07 December 2022 00:00
Orbit: 387 x 394 km, 41.5° (Epoch: 26 November)

Date Brightness Start Highest point End Pass type
(mag) Time Alt. Az. Time Alt. Az. Time Alt. Az.
27 Nov -0.3 18:04:10 10° S 18:06:30 19° SE 18:07:00 18° SE visible
28 Nov -1.0 18:42:17 10° WSW 18:44:33 42° SW 18:44:33 42° SW visible
29 Nov -1.3 17:44:43 10° SW 17:47:43 39° SSE 17:49:38 18° E visible
29 Nov 1.4 19:21:40 10° W 19:21:59 12° W 19:21:59 12° W visible
30 Nov -1.9 18:23:38 10° WSW 18:26:47 58° NNW 18:26:59 57° N visible
01 Dec -2.1 17:25:43 10° WSW 17:28:53 83° SSE 17:31:55 11° ENE visible
01 Dec 0.7 19:03:15 10° WNW 19:04:15 17° WNW 19:04:15 17° WNW visible
02 Dec -1.1 18:05:04 10° W 18:08:03 36° NNW 18:09:07 27° NNE visible
03 Dec 0.1 18:44:41 10° WNW 18:46:15 20° NW 18:46:15 20° NW visible
04 Dec -0.7 17:46:26 10° WNW 17:49:14 27° N 17:51:01 17° NE visible
05 Dec -0.4 18:25:52 10° NW 18:28:06 23° NNW 18:28:06 23° NNW visible
06 Dec -0.6 17:27:39 10° WNW 17:30:20 24° N 17:32:51 11° NE visible
06 Dec 1.0 19:04:49 10° NW 19:05:10 12° NW 19:05:10 12° NW visible
